Location: Piotrkow Trybunalski
(51.4000°N, 19.6830°E)
Time: 22:34:10
(UTC+01:00)

ISS - Pass Details

Date: 29 January 2020
Orbit: 415 x 423 km, 51.6° (Epoch: 25 February)

Event Time Altitude Azimuth Distance (km) Brightness Sun altitude
Rises 17:37:50 0° 261° (W) 2,378 2.2 -11.4°
Reaches altitude 10° 17:39:56 10° 261° (W) 1,513 0.6 -11.7°
Maximum altitude 17:43:21 90° 225° (SW) 429 -3.8 -12.3°
Enters shadow 17:45:24 22° 83° (E) 977 -2.5 -12.6°
